,,,PA_Meas_PMT16A,,PR_Meas_QMR101_102,,RH_Meas_QMH101,,SR_Meas_QMS101,,TA_Meas_QMH101,,GenWind,,GenWind,
date,time,status,PA,status,PR,status,RH,status,SR,status,TA,status,DirAvg,status,SpdAvg,
2011-08-27, 00:00:05,VALID,1005.49,VALID,0,INVALID,163.678,VALID,0,VALID,25.339,VALID,113,VALID,0,
2011-08-27, 00:01:05,VALID,1005.71,VALID,0,INVALID,163.639,VALID,0,VALID,25.3584,VALID,142,VALID,0,
2011-08-27, 00:02:05,VALID,1005.73,VALID,0,INVALID,163.655,VALID,0,VALID,25.337,VALID,112,VALID,0,
2011-08-27, 00:03:05,VALID,1005.78,VALID,0,INVALID,163.632,VALID,0,VALID,25.3779,VALID,165,VALID,0,
2011-08-27, 00:04:05,VALID,1005.86,VALID,0,INVALID,163.655,VALID,0,VALID,25.3565,VALID,161,VALID,0,
2011-08-27, 00:05:05,VALID,1005.93,VALID,0,INVALID,163.647,VALID,0,VALID,25.2981,VALID,155,VALID,0,
2011-08-27, 00:06:05,VALID,1005.95,VALID,0,INVALID,163.655,VALID,0,VALID,25.2221,VALID,132,VALID,0,
2011-08-27, 00:07:05,VALID,1005.94,VALID,0,INVALID,163.655,VALID,0,VALID,25.1442,VALID,115,VALID,0,
2011-08-27, 00:08:05,VALID,1006.01,VALID,0,INVALID,163.67,VALID,0,VALID,24.9282,VALID,133,VALID,0,
2011-08-27, 00:09:05,VALID,1005.96,VALID,0.5,INVALID,163.685,VALID,0,VALID,24.7743,VALID,108,VALID,0,
2011-08-27, 00:10:05,VALID,1005.84,VALID,0.5,INVALID,163.723,VALID,0,VALID,24.5212,VALID,96,VALID,0,
2011-08-27, 00:11:05,VALID,1006.01,VALID,0.5,INVALID,163.739,VALID,0,VALID,24.3441,VALID,118,VALID,0,
2011-08-27, 00:12:05,VALID,1006.14,VALID,0.5,INVALID,163.716,VALID,0,VALID,24.0132,VALID,82,VALID,0,
2011-08-27, 00:13:05,VALID,1006.22,VALID,0.5,INVALID,163.739,VALID,0,VALID,23.8167,VALID,145,VALID,0,
2011-08-27, 00:14:05,VALID,1006.2,VALID,1,INVALID,163.754,VALID,0,VALID,23.5673,VALID,133,VALID,0,
2011-08-27, 00:15:05,VALID,1006.01,VALID,1.5,INVALID,163.777,VALID,0,VALID,23.4505,VALID,42,VALID,0,
2011-08-27, 00:16:05,VALID,1005.84,VALID,1.5,INVALID,163.8,VALID,0.100563,VALID,23.3691,VALID,53,VALID,0,
2011-08-27, 00:17:05,VALID,1005.78,VALID,0.5,INVALID,163.792,VALID,0.100563,VALID,23.3514,VALID,28,VALID,0,
2011-08-27, 00:18:05,VALID,1005.68,VALID,1.5,INVALID,163.8,VALID,0,VALID,23.332,VALID,22,VALID,0,
2011-08-27, 00:19:05,VALID,1005.65,VALID,1.5,INVALID,163.815,VALID,0,VALID,23.2931,VALID,25,VALID,0,
2011-08-27, 00:20:05,VALID,1005.43,VALID,1,INVALID,163.784,VALID,0,VALID,23.2736,VALID,354,VALID,0,
2011-08-27, 00:21:05,VALID,1005.3,VALID,1,INVALID,163.8,VALID,0.100563,VALID,23.2931,VALID,348,VALID,0,
2011-08-27, 00:22:05,VALID,1005.18,VALID,0,INVALID,163.823,VALID,0,VALID,23.3107,VALID,356,VALID,0,
2011-08-27, 00:23:05,VALID,1005.14,VALID,0,INVALID,163.807,VALID,0,VALID,23.3709,VALID,314,VALID,0,
2011-08-27, 00:24:05,VALID,1005.18,VALID,0,INVALID,163.8,VALID,0.100563,VALID,23.3886,VALID,278,VALID,0,
2011-08-27, 00:25:05,VALID,1005.22,VALID,0,INVALID,163.815,VALID,0.100563,VALID,23.408,VALID,275,VALID,0,
2011-08-27, 00:26:05,VALID,1005.16,VALID,0,INVALID,163.777,VALID,0,VALID,23.4293,VALID,271,VALID,0,
2011-08-27, 00:27:05,VALID,1005.15,VALID,0,INVALID,163.792,VALID,0.100563,VALID,23.4487,VALID,271,VALID,0,
2011-08-27, 00:28:05,VALID,1005.14,VALID,0,INVALID,163.823,VALID,0.100563,VALID,23.4877,VALID,293,VALID,0,
2011-08-27, 00:29:05,VALID,1005.16,VALID,0.5,INVALID,163.8,VALID,0.100563,VALID,23.4877,VALID,345,VALID,0,
2011-08-27, 00:30:05,VALID,1005.08,VALID,0,INVALID,163.777,VALID,0,VALID,23.4487,VALID,287,VALID,0,
2011-08-27, 00:31:05,VALID,1005.06,VALID,0,INVALID,163.792,VALID,0,VALID,23.4682,VALID,292,VALID,0,
2011-08-27, 00:32:05,VALID,1004.98,VALID,0,INVALID,163.792,VALID,0,VALID,23.5089,VALID,302,VALID,0,
2011-08-27, 00:33:05,VALID,1004.94,VALID,0,INVALID,163.769,VALID,0,VALID,23.5266,VALID,294,VALID,0,
2011-08-27, 00:34:05,VALID,1004.93,VALID,0,INVALID,163.8,VALID,0,VALID,23.5655,VALID,291,VALID,0,
2011-08-27, 00:35:05,VALID,1004.94,VALID,0,INVALID,163.762,VALID,0,VALID,23.5673,VALID,288,VALID,0,
2011-08-27, 00:36:05,VALID,1004.98,VALID,0,INVALID,163.815,VALID,0,VALID,23.5266,VALID,193,VALID,0,
2011-08-27, 00:37:05,VALID,1005.04,VALID,0,INVALID,163.746,VALID,0,VALID,23.4682,VALID,189,VALID,0,
2011-08-27, 00:38:05,VALID,1005.03,VALID,0,INVALID,163.777,VALID,0,VALID,23.4894,VALID,129,VALID,0,
2011-08-27, 00:39:05,VALID,1005.02,VALID,0,INVALID,163.777,VALID,0,VALID,23.4487,VALID,129,VALID,0,
2011-08-27, 00:40:05,VALID,1005,VALID,0,INVALID,163.8,VALID,0,VALID,23.3886,VALID,129,VALID,0,
2011-08-27, 00:41:05,VALID,1005.01,VALID,0,INVALID,163.815,VALID,0,VALID,23.4098,VALID,129,VALID,0,
2011-08-27, 00:42:05,VALID,1004.97,VALID,0,INVALID,163.807,VALID,0,VALID,23.4293,VALID,129,VALID,0,
2011-08-27, 00:43:05,VALID,1004.95,VALID,0,INVALID,163.807,VALID,0,VALID,23.4311,VALID,129,VALID,0,
2011-08-27, 00:44:05,VALID,1004.93,VALID,0,INVALID,163.823,VALID,0,VALID,23.3904,VALID,151,VALID,0,
2011-08-27, 00:45:05,VALID,1004.92,VALID,0,INVALID,163.815,VALID,0.100563,VALID,23.3497,VALID,151,VALID,0,
2011-08-27, 00:46:05,VALID,1004.88,VALID,0,INVALID,163.815,VALID,0.100563,VALID,23.3497,VALID,150,VALID,0,
2011-08-27, 00:47:05,VALID,1004.86,VALID,0,INVALID,163.823,VALID,0.100563,VALID,23.3497,VALID,143,VALID,0,
2011-08-27, 00:48:05,VALID,1004.83,VALID,0,INVALID,163.792,VALID,0.100563,VALID,23.3514,VALID,142,VALID,0,
2011-08-27, 00:49:05,VALID,1004.83,VALID,0,INVALID,163.792,VALID,0.100563,VALID,23.3514,VALID,116,VALID,0,
2011-08-27, 00:50:05,VALID,1004.82,VALID,0,INVALID,163.815,VALID,0.100563,VALID,23.3302,VALID,95,VALID,0,
2011-08-27, 00:51:05,VALID,1004.81,VALID,0,INVALID,163.777,VALID,0.100563,VALID,23.3107,VALID,95,VALID,0,
2011-08-27, 00:52:05,VALID,1004.82,VALID,0,INVALID,163.792,VALID,0.100563,VALID,23.3302,VALID,95,VALID,0,
2011-08-27, 00:53:05,VALID,1004.81,VALID,0,INVALID,163.754,VALID,0.100563,VALID,23.2895,VALID,95,VALID,0,
2011-08-27, 00:54:05,VALID,1004.79,VALID,0,INVALID,163.823,VALID,0.100563,VALID,23.3107,VALID,95,VALID,0,
2011-08-27, 00:55:05,VALID,1004.8,VALID,0,INVALID,163.8,VALID,0.100563,VALID,23.2913,VALID,95,VALID,0,
2011-08-27, 00:56:05,VALID,1004.78,VALID,0,INVALID,163.8,VALID,0.100563,VALID,23.2931,VALID,95,VALID,0,
2011-08-27, 00:57:05,VALID,1004.73,VALID,0,INVALID,163.807,VALID,0.100563,VALID,23.2524,VALID,95,VALID,0,
2011-08-27, 00:58:05,VALID,1004.71,VALID,0,INVALID,163.83,VALID,0.100563,VALID,23.2329,VALID,45,VALID,0,
2011-08-27, 00:59:05,VALID,1004.72,VALID,0,INVALID,163.823,VALID,0.100563,VALID,23.2329,VALID,28,VALID,0,
2011-08-27, 01:00:05,VALID,1004.72,VALID,0,INVALID,163.823,VALID,0,VALID,23.194,VALID,28,VALID,0,
2011-08-27, 01:01:05,VALID,1004.7,VALID,0,INVALID,163.792,VALID,0,VALID,23.2152,VALID,28,VALID,0,
2011-08-27, 01:02:05,VALID,1004.72,VALID,0,INVALID,163.815,VALID,0,VALID,23.2152,VALID,28,VALID,0,
2011-08-27, 01:03:05,VALID,1004.66,VALID,0,INVALID,163.815,VALID,0,VALID,23.1957,VALID,28,VALID,0,
2011-08-27, 01:04:05,VALID,1004.64,VALID,0,INVALID,163.823,VALID,0,VALID,23.1763,VALID,28,VALID,0,
2011-08-27, 01:05:05,VALID,1004.6,VALID,0,INVALID,163.838,VALID,0,VALID,23.1957,VALID,28,VALID,0,
2011-08-27, 01:06:05,VALID,1004.6,VALID,0,INVALID,163.815,VALID,0,VALID,23.1957,VALID,23,VALID,0,
2011-08-27, 01:07:05,VALID,1004.61,VALID,0,INVALID,163.8,VALID,0,VALID,23.1957,VALID,23,VALID,0,
2011-08-27, 01:08:05,VALID,1004.61,VALID,0,INVALID,163.807,VALID,0,VALID,23.217,VALID,23,VALID,0,
2011-08-27, 01:09:05,VALID,1004.6,VALID,0,INVALID,163.815,VALID,0,VALID,23.1551,VALID,23,VALID,0,
2011-08-27, 01:10:05,VALID,1004.6,VALID,0,INVALID,163.8,VALID,0,VALID,23.1568,VALID,23,VALID,0,
2011-08-27, 01:11:05,VALID,1004.61,VALID,0,INVALID,163.823,VALID,0,VALID,23.1374,VALID,23,VALID,0,
2011-08-27, 01:12:05,VALID,1004.58,VALID,0,INVALID,163.807,VALID,0,VALID,23.1568,VALID,22,VALID,0,
2011-08-27, 01:13:05,VALID,1004.58,VALID,0,INVALID,163.807,VALID,0,VALID,23.178,VALID,20,VALID,0,
2011-08-27, 01:14:05,VALID,1004.57,VALID,0,INVALID,163.83,VALID,0,VALID,23.1374,VALID,20,VALID,0,
2011-08-27, 01:15:05,VALID,1004.56,VALID,0,INVALID,163.815,VALID,0,VALID,23.1568,VALID,20,VALID,0,
2011-08-27, 01:16:05,VALID,1004.54,VALID,0,INVALID,163.8,VALID,0,VALID,23.178,VALID,20,VALID,0,
2011-08-27, 01:17:05,VALID,1004.54,VALID,0,INVALID,163.807,VALID,0,VALID,23.1568,VALID,20,VALID,0,
2011-08-27, 01:18:05,VALID,1004.51,VALID,0,INVALID,163.845,VALID,0,VALID,23.178,VALID,18,VALID,0,
2011-08-27, 01:19:05,VALID,1004.48,VALID,0,INVALID,163.8,VALID,0,VALID,23.1763,VALID,18,VALID,0,
2011-08-27, 01:20:05,VALID,1004.48,VALID,0,INVALID,163.8,VALID,0,VALID,23.1763,VALID,18,VALID,0,
2011-08-27, 01:21:05,VALID,1004.5,VALID,0,INVALID,163.8,VALID,0,VALID,23.1763,VALID,18,VALID,0,
2011-08-27, 01:22:05,VALID,1004.47,VALID,0,INVALID,163.8,VALID,0,VALID,23.1745,VALID,18,VALID,0,
2011-08-27, 01:23:05,VALID,1004.47,VALID,0,INVALID,163.807,VALID,0,VALID,23.1957,VALID,18,VALID,0,
2011-08-27, 01:24:05,VALID,1004.48,VALID,0,INVALID,163.815,VALID,0,VALID,23.1763,VALID,18,VALID,0,
2011-08-27, 01:25:05,VALID,1004.49,VALID,0,INVALID,163.815,VALID,0,VALID,23.1763,VALID,18,VALID,0,
2011-08-27, 01:26:05,VALID,1004.48,VALID,0,INVALID,163.807,VALID,0,VALID,23.1763,VALID,18,VALID,0,
2011-08-27, 01:27:05,VALID,1004.48,VALID,0,INVALID,163.845,VALID,0,VALID,23.1568,VALID,18,VALID,0,
2011-08-27, 01:28:05,VALID,1004.48,VALID,0,INVALID,163.823,VALID,0,VALID,23.1568,VALID,18,VALID,0,
2011-08-27, 01:29:05,VALID,1004.51,VALID,0,INVALID,163.8,VALID,0,VALID,23.1568,VALID,18,VALID,0,
2011-08-27, 01:30:05,VALID,1004.51,VALID,0,INVALID,163.815,VALID,0,VALID,23.1374,VALID,18,VALID,0,
2011-08-27, 01:31:05,VALID,1004.49,VALID,0,INVALID,163.815,VALID,0,VALID,23.1568,VALID,18,VALID,0,
2011-08-27, 01:32:05,VALID,1004.51,VALID,0,INVALID,163.8,VALID,0,VALID,23.1568,VALID,18,VALID,0,
2011-08-27, 01:33:05,VALID,1004.5,VALID,0,INVALID,163.815,VALID,0,VALID,23.1568,VALID,18,VALID,0,
2011-08-27, 01:34:05,VALID,1004.46,VALID,0,INVALID,163.807,VALID,0,VALID,23.1374,VALID,18,VALID,0,
2011-08-27, 01:35:05,VALID,1004.46,VALID,0,INVALID,163.807,VALID,0,VALID,23.0967,VALID,18,VALID,0,
2011-08-27, 01:36:05,VALID,1004.45,VALID,0,INVALID,163.807,VALID,0,VALID,23.079,VALID,18,VALID,0,
2011-08-27, 01:37:05,VALID,1004.43,VALID,0,INVALID,163.815,VALID,0,VALID,23.079,VALID,18,VALID,0,
2011-08-27, 01:38:05,VALID,1004.42,VALID,0,INVALID,163.807,VALID,0,VALID,23.0595,VALID,18,VALID,0,
2011-08-27, 01:39:05,VALID,1004.42,VALID,0,INVALID,163.807,VALID,0,VALID,23.0401,VALID,31,VALID,0,
2011-08-27, 01:40:05,VALID,1004.4,VALID,0,INVALID,163.845,VALID,0,VALID,23.0401,VALID,31,VALID,0,
2011-08-27, 01:41:05,VALID,1004.4,VALID,0,INVALID,163.83,VALID,0,VALID,22.9994,VALID,31,VALID,0,
2011-08-27, 01:42:05,VALID,1004.4,VALID,0,INVALID,163.823,VALID,0,VALID,23.0012,VALID,31,VALID,0,
2011-08-27, 01:43:05,VALID,1004.42,VALID,0,INVALID,163.853,VALID,0,VALID,23.0012,VALID,31,VALID,0,
2011-08-27, 01:44:05,VALID,1004.39,VALID,0,INVALID,163.868,VALID,0,VALID,22.9817,VALID,31,VALID,0,
2011-08-27, 01:45:05,VALID,1004.39,VALID,0,INVALID,163.823,VALID,0,VALID,22.941,VALID,31,VALID,0,
2011-08-27, 01:46:05,VALID,1004.39,VALID,0,INVALID,163.823,VALID,0.100563,VALID,22.9622,VALID,31,VALID,0,
2011-08-27, 01:47:05,VALID,1004.4,VALID,0,INVALID,163.823,VALID,0,VALID,22.9428,VALID,31,VALID,0,
2011-08-27, 01:48:05,VALID,1004.4,VALID,0,INVALID,163.845,VALID,0,VALID,22.9039,VALID,31,VALID,0,
2011-08-27, 01:49:05,VALID,1004.38,VALID,0,INVALID,163.853,VALID,0,VALID,22.9039,VALID,31,VALID,0,
2011-08-27, 01:50:05,VALID,1004.4,VALID,0,INVALID,163.838,VALID,0,VALID,22.8649,VALID,30,VALID,0,
2011-08-27, 01:51:05,VALID,1004.4,VALID,0,INVALID,163.845,VALID,0,VALID,22.8649,VALID,31,VALID,0,
2011-08-27, 01:52:05,VALID,1004.37,VALID,0,INVALID,163.83,VALID,0,VALID,22.8455,VALID,77,VALID,0,
2011-08-27, 01:53:05,VALID,1004.37,VALID,0,INVALID,163.83,VALID,0,VALID,22.8649,VALID,91,VALID,0,
2011-08-27, 01:54:05,VALID,1004.35,VALID,0,INVALID,163.807,VALID,0,VALID,22.8649,VALID,91,VALID,0,
2011-08-27, 01:55:05,VALID,1004.36,VALID,0,INVALID,163.853,VALID,0,VALID,22.8649,VALID,91,VALID,0,
2011-08-27, 01:56:05,VALID,1004.33,VALID,0,INVALID,163.868,VALID,0,VALID,22.8861,VALID,91,VALID,0,
2011-08-27, 01:57:05,VALID,1004.35,VALID,0,INVALID,163.823,VALID,0.100563,VALID,22.8649,VALID,91,VALID,0,
2011-08-27, 01:58:05,VALID,1004.35,VALID,0,INVALID,163.83,VALID,0.100563,VALID,22.8649,VALID,91,VALID,0,
2011-08-27, 01:59:05,VALID,1004.32,VALID,0,INVALID,163.838,VALID,0,VALID,22.9251,VALID,91,VALID,0,
2011-08-27, 02:00:05,VALID,1004.34,VALID,0,INVALID,163.83,VALID,0,VALID,22.9039,VALID,91,VALID,0,
2011-08-27, 02:01:05,VALID,1004.32,VALID,0,INVALID,163.845,VALID,0,VALID,22.8827,VALID,91,VALID,0,
2011-08-27, 02:02:05,VALID,1004.29,VALID,0,INVALID,163.838,VALID,0.100563,VALID,22.9039,VALID,91,VALID,0,
2011-08-27, 02:03:05,VALID,1004.29,VALID,0,INVALID,163.853,VALID,0,VALID,22.9039,VALID,91,VALID,0,
2011-08-27, 02:04:05,VALID,1004.24,VALID,0,INVALID,163.815,VALID,0,VALID,22.8844,VALID,91,VALID,0,
2011-08-27, 02:05:05,VALID,1004.23,VALID,0,INVALID,163.823,VALID,0,VALID,22.8844,VALID,91,VALID,0,
2011-08-27, 02:06:05,VALID,1004.22,VALID,0,INVALID,163.853,VALID,0,VALID,22.8844,VALID,91,VALID,0,
2011-08-27, 02:07:05,VALID,1004.22,VALID,0,INVALID,163.823,VALID,0,VALID,22.8844,VALID,91,VALID,0,
2011-08-27, 02:08:05,VALID,1004.22,VALID,0,INVALID,163.815,VALID,0,VALID,22.9039,VALID,91,VALID,0,
2011-08-27, 02:09:05,VALID,1004.2,VALID,0,INVALID,163.838,VALID,0,VALID,22.9039,VALID,91,VALID,0,
2011-08-27, 02:10:05,VALID,1004.19,VALID,0,INVALID,163.838,VALID,0,VALID,22.8844,VALID,91,VALID,0,
2011-08-27, 02:11:05,VALID,1004.18,VALID,0,INVALID,163.838,VALID,0.100563,VALID,22.9039,VALID,91,VALID,0,
2011-08-27, 02:12:05,VALID,1004.13,VALID,0,INVALID,163.838,VALID,0,VALID,22.9039,VALID,91,VALID,0,
2011-08-27, 02:13:05,VALID,1004.11,VALID,0,INVALID,163.815,VALID,0.100563,VALID,22.9039,VALID,55,VALID,0,
2011-08-27, 02:14:05,VALID,1004.13,VALID,0,INVALID,163.845,VALID,0,VALID,22.8844,VALID,53,VALID,0,
2011-08-27, 02:15:05,VALID,1004.11,VALID,0,INVALID,163.823,VALID,0.100563,VALID,22.8844,VALID,53,VALID,0,
2011-08-27, 02:16:04,VALID,1004.09,VALID,0,INVALID,163.838,VALID,0,VALID,22.8649,VALID,53,VALID,0,
2011-08-27, 02:17:04,VALID,1004.03,VALID,0,INVALID,163.861,VALID,0,VALID,22.8455,VALID,53,VALID,0,
2011-08-27, 02:18:04,VALID,1004.04,VALID,0,INVALID,163.845,VALID,0,VALID,22.8649,VALID,53,VALID,0,
2011-08-27, 02:19:04,VALID,1004.01,VALID,0,INVALID,163.868,VALID,0,VALID,22.8649,VALID,53,VALID,0,
2011-08-27, 02:20:04,VALID,1004.02,VALID,0,INVALID,163.838,VALID,0,VALID,22.8455,VALID,53,VALID,0,
2011-08-27, 02:21:04,VALID,1004.01,VALID,0,INVALID,163.845,VALID,0,VALID,22.8844,VALID,53,VALID,0,
2011-08-27, 02:22:04,VALID,1004.01,VALID,0,INVALID,163.83,VALID,0.100563,VALID,22.8649,VALID,53,VALID,0,
2011-08-27, 02:23:04,VALID,1004.02,VALID,0,INVALID,163.853,VALID,0,VALID,22.8844,VALID,53,VALID,0,
2011-08-27, 02:24:04,VALID,1004.03,VALID,0,INVALID,163.823,VALID,0,VALID,22.8632,VALID,53,VALID,0,
2011-08-27, 02:25:04,VALID,1004.02,VALID,0,INVALID,163.83,VALID,0,VALID,22.8844,VALID,53,VALID,0,
2011-08-27, 02:26:04,VALID,1004.04,VALID,0,INVALID,163.868,VALID,0,VALID,22.9039,VALID,53,VALID,0,
2011-08-27, 02:27:04,VALID,1004.01,VALID,0,INVALID,163.853,VALID,0.100563,VALID,22.9216,VALID,53,VALID,0,
2011-08-27, 02:28:04,VALID,1003.99,VALID,0,INVALID,163.815,VALID,0.100563,VALID,22.9622,VALID,53,VALID,0,
2011-08-27, 02:29:04,VALID,1003.98,VALID,0,INVALID,163.83,VALID,0,VALID,23.0012,VALID,53,VALID,0,
2011-08-27, 02:30:04,VALID,1003.97,VALID,0,INVALID,163.823,VALID,0,VALID,22.98,VALID,53,VALID,0,
2011-08-27, 02:31:04,VALID,1003.94,VALID,0,INVALID,163.815,VALID,0.100563,VALID,23.0206,VALID,53,VALID,0,
2011-08-27, 02:32:04,VALID,1003.98,VALID,0,INVALID,163.83,VALID,0,VALID,23.0401,VALID,53,VALID,0,
2011-08-27, 02:33:04,VALID,1003.98,VALID,0,INVALID,163.838,VALID,0.100563,VALID,23.0206,VALID,53,VALID,0,
2011-08-27, 02:34:04,VALID,1003.99,VALID,0,INVALID,163.838,VALID,0.100563,VALID,23.0012,VALID,53,VALID,0,
2011-08-27, 02:35:04,VALID,1004,VALID,0,INVALID,163.83,VALID,0,VALID,23.0401,VALID,53,VALID,0,
2011-08-27, 02:36:04,VALID,1003.98,VALID,0,INVALID,163.83,VALID,0,VALID,23.0401,VALID,53,VALID,0,
2011-08-27, 02:37:04,VALID,1003.97,VALID,0,INVALID,163.8,VALID,0,VALID,23.079,VALID,53,VALID,0,
2011-08-27, 02:38:04,VALID,1003.98,VALID,0,INVALID,163.838,VALID,0,VALID,23.0578,VALID,53,VALID,0,
2011-08-27, 02:39:04,VALID,1003.96,VALID,0,INVALID,163.823,VALID,0,VALID,23.0595,VALID,53,VALID,0,
2011-08-27, 02:40:04,VALID,1003.94,VALID,0,INVALID,163.823,VALID,0,VALID,23.0383,VALID,53,VALID,0,
2011-08-27, 02:41:04,VALID,1003.9,VALID,0,INVALID,163.845,VALID,0.100563,VALID,23.079,VALID,42,VALID,0,
2011-08-27, 02:42:04,VALID,1003.89,VALID,0,INVALID,163.807,VALID,0.100563,VALID,23.0984,VALID,27,VALID,0,
2011-08-27, 02:43:04,VALID,1003.94,VALID,0,INVALID,163.838,VALID,0,VALID,23.0984,VALID,27,VALID,0,
2011-08-27, 02:44:04,VALID,1003.95,VALID,0,INVALID,163.83,VALID,0,VALID,23.1391,VALID,27,VALID,0,
2011-08-27, 02:45:04,VALID,1003.95,VALID,0,INVALID,163.823,VALID,0,VALID,23.1179,VALID,27,VALID,0,
2011-08-27, 02:46:04,VALID,1003.96,VALID,0,INVALID,163.815,VALID,0,VALID,23.1391,VALID,27,VALID,0,
2011-08-27, 02:47:04,VALID,1003.97,VALID,0,INVALID,163.823,VALID,0,VALID,23.1374,VALID,27,VALID,0,
2011-08-27, 02:48:04,VALID,1003.97,VALID,0,INVALID,163.823,VALID,0,VALID,23.1568,VALID,27,VALID,0,
2011-08-27, 02:49:04,VALID,1003.94,VALID,0,INVALID,163.823,VALID,0,VALID,23.1957,VALID,27,VALID,0,
2011-08-27, 02:50:04,VALID,1003.91,VALID,0,INVALID,163.807,VALID,0,VALID,23.1957,VALID,27,VALID,0,
2011-08-27, 02:51:04,VALID,1003.91,VALID,0,INVALID,163.815,VALID,0,VALID,23.2152,VALID,27,VALID,0,
2011-08-27, 02:52:04,VALID,1003.89,VALID,0,INVALID,163.807,VALID,0,VALID,23.2134,VALID,27,VALID,0,
2011-08-27, 02:53:04,VALID,1003.93,VALID,0,INVALID,163.838,VALID,0.100563,VALID,23.2541,VALID,27,VALID,0,
2011-08-27, 02:54:04,VALID,1003.94,VALID,0,INVALID,163.815,VALID,0,VALID,23.2541,VALID,27,VALID,0,
2011-08-27, 02:55:04,VALID,1003.96,VALID,0,INVALID,163.823,VALID,0,VALID,23.2541,VALID,27,VALID,0,
2011-08-27, 02:56:04,VALID,1003.93,VALID,0,INVALID,163.823,VALID,0,VALID,23.2134,VALID,27,VALID,0,
2011-08-27, 02:57:04,VALID,1003.96,VALID,0,INVALID,163.807,VALID,0,VALID,23.2347,VALID,27,VALID,0,
2011-08-27, 02:58:04,VALID,1003.96,VALID,0,INVALID,163.815,VALID,0,VALID,23.2152,VALID,27,VALID,0,
2011-08-27, 02:59:04,VALID,1003.94,VALID,0,INVALID,163.784,VALID,0,VALID,23.1957,VALID,27,VALID,0,
2011-08-27, 03:00:04,VALID,1003.94,VALID,0,INVALID,163.823,VALID,0.100563,VALID,23.2152,VALID,27,VALID,0,
2011-08-27, 03:01:04,VALID,1003.9,VALID,0,INVALID,163.815,VALID,0,VALID,23.1763,VALID,27,VALID,0,
2011-08-27, 03:02:04,VALID,1003.88,VALID,0,INVALID,163.8,VALID,0,VALID,23.1763,VALID,27,VALID,0,
2011-08-27, 03:03:04,VALID,1003.87,VALID,0,INVALID,163.807,VALID,0,VALID,23.1763,VALID,27,VALID,0,
2011-08-27, 03:04:04,VALID,1003.8,VALID,0,INVALID,163.807,VALID,0,VALID,23.1356,VALID,27,VALID,0,
2011-08-27, 03:05:04,VALID,1003.8,VALID,0,INVALID,163.815,VALID,0,VALID,23.1374,VALID,27,VALID,0,
2011-08-27, 03:06:04,VALID,1003.79,VALID,0,INVALID,163.807,VALID,0,VALID,23.1179,VALID,27,VALID,0,
2011-08-27, 03:07:04,VALID,1003.81,VALID,0,INVALID,163.823,VALID,0,VALID,23.1586,VALID,27,VALID,0,
2011-08-27, 03:08:04,VALID,1003.83,VALID,0,INVALID,163.807,VALID,0,VALID,23.1179,VALID,27,VALID,0,
2011-08-27, 03:09:04,VALID,1003.81,VALID,0,INVALID,163.838,VALID,0,VALID,23.1391,VALID,27,VALID,0,
2011-08-27, 03:10:04,VALID,1003.83,VALID,0,INVALID,163.815,VALID,0,VALID,23.079,VALID,27,VALID,0,
2011-08-27, 03:11:04,VALID,1003.81,VALID,0,INVALID,163.8,VALID,0,VALID,23.1002,VALID,27,VALID,0,
2011-08-27, 03:12:04,VALID,1003.79,VALID,0,INVALID,163.83,VALID,0,VALID,23.079,VALID,27,VALID,0,
2011-08-27, 03:13:04,VALID,1003.78,VALID,0,INVALID,163.83,VALID,0,VALID,23.1002,VALID,27,VALID,0,
2011-08-27, 03:14:04,VALID,1003.77,VALID,0,INVALID,163.823,VALID,0,VALID,23.0595,VALID,27,VALID,0,
2011-08-27, 03:15:04,VALID,1003.77,VALID,0,INVALID,163.838,VALID,0,VALID,23.0613,VALID,27,VALID,0,
2011-08-27, 03:16:04,VALID,1003.71,VALID,0,INVALID,163.807,VALID,0,VALID,23.0189,VALID,27,VALID,0,
2011-08-27, 03:17:04,VALID,1003.71,VALID,0,INVALID,163.838,VALID,0,VALID,23.0595,VALID,27,VALID,0,
2011-08-27, 03:18:04,VALID,1003.7,VALID,0,INVALID,163.823,VALID,0,VALID,23.0595,VALID,27,VALID,0,
2011-08-27, 03:19:04,VALID,1003.72,VALID,0,INVALID,163.823,VALID,0,VALID,23.0595,VALID,27,VALID,0,
2011-08-27, 03:20:04,VALID,1003.72,VALID,0,INVALID,163.807,VALID,0,VALID,23.0595,VALID,27,VALID,0,
2011-08-27, 03:21:04,VALID,1003.71,VALID,0,INVALID,163.838,VALID,0,VALID,23.0578,VALID,27,VALID,0,
2011-08-27, 03:22:04,VALID,1003.68,VALID,0,INVALID,163.83,VALID,0,VALID,23.0595,VALID,27,VALID,0,
2011-08-27, 03:23:04,VALID,1003.67,VALID,0,INVALID,163.83,VALID,0,VALID,23.0595,VALID,27,VALID,0,
2011-08-27, 03:24:04,VALID,1003.67,VALID,0,INVALID,163.807,VALID,0,VALID,23.0401,VALID,27,VALID,0,
2011-08-27, 03:25:04,VALID,1003.64,VALID,0,INVALID,163.838,VALID,0,VALID,23.0595,VALID,27,VALID,0,
2011-08-27, 03:26:04,VALID,1003.65,VALID,0,INVALID,163.838,VALID,0,VALID,23.0578,VALID,27,VALID,0,
2011-08-27, 03:27:04,VALID,1003.63,VALID,0,INVALID,163.807,VALID,0,VALID,23.079,VALID,27,VALID,0,
2011-08-27, 03:28:04,VALID,1003.65,VALID,0,INVALID,163.838,VALID,0,VALID,23.0383,VALID,27,VALID,0,
2011-08-27, 03:29:04,VALID,1003.65,VALID,0,INVALID,163.8,VALID,0,VALID,23.0401,VALID,27,VALID,0,
2011-08-27, 03:30:04,VALID,1003.66,VALID,0,INVALID,163.845,VALID,0.100563,VALID,23.0595,VALID,27,VALID,0,
2011-08-27, 03:31:04,VALID,1003.66,VALID,0,INVALID,163.83,VALID,0,VALID,23.0595,VALID,27,VALID,0,
2011-08-27, 03:32:04,VALID,1003.64,VALID,0,INVALID,163.815,VALID,0,VALID,23.0595,VALID,27,VALID,0,
2011-08-27, 03:33:04,VALID,1003.64,VALID,0,INVALID,163.815,VALID,0,VALID,23.079,VALID,27,VALID,0,
2011-08-27, 03:34:04,VALID,1003.62,VALID,0,INVALID,163.823,VALID,0,VALID,23.079,VALID,27,VALID,0,
2011-08-27, 03:35:04,VALID,1003.59,VALID,0,INVALID,163.792,VALID,0,VALID,23.0595,VALID,26,VALID,0,
2011-08-27, 03:36:04,VALID,1003.57,VALID,0,INVALID,163.845,VALID,0,VALID,23.0401,VALID,10,VALID,0,
2011-08-27, 03:37:04,VALID,1003.61,VALID,0,INVALID,163.838,VALID,0,VALID,23.0401,VALID,6,VALID,0,
2011-08-27, 03:38:04,VALID,1003.63,VALID,0,INVALID,163.815,VALID,0,VALID,23.0224,VALID,6,VALID,0,
2011-08-27, 03:39:04,VALID,1003.66,VALID,0,INVALID,163.815,VALID,0,VALID,23.0029,VALID,6,VALID,0,
2011-08-27, 03:40:04,VALID,1003.67,VALID,0,INVALID,163.845,VALID,0,VALID,22.9605,VALID,6,VALID,0,
2011-08-27, 03:41:04,VALID,1003.66,VALID,0,INVALID,163.815,VALID,0,VALID,23.0029,VALID,6,VALID,0,
2011-08-27, 03:42:04,VALID,1003.69,VALID,0,INVALID,163.8,VALID,0,VALID,23.0012,VALID,6,VALID,0,
2011-08-27, 03:43:04,VALID,1003.69,VALID,0,INVALID,163.823,VALID,0,VALID,23.0206,VALID,6,VALID,0,
2011-08-27, 03:44:04,VALID,1003.68,VALID,0,INVALID,163.838,VALID,0,VALID,23.0595,VALID,6,VALID,0,
2011-08-27, 03:45:04,VALID,1003.69,VALID,0,INVALID,163.823,VALID,0.100563,VALID,23.079,VALID,6,VALID,0,
2011-08-27, 03:46:04,VALID,1003.66,VALID,0,INVALID,163.807,VALID,0,VALID,23.0772,VALID,6,VALID,0,
2011-08-27, 03:47:04,VALID,1003.66,VALID,0,INVALID,163.853,VALID,0,VALID,23.1179,VALID,6,VALID,0,
2011-08-27, 03:48:04,VALID,1003.65,VALID,0,INVALID,163.807,VALID,0,VALID,23.1568,VALID,6,VALID,0,
2011-08-27, 03:49:04,VALID,1003.65,VALID,0,INVALID,163.815,VALID,0,VALID,23.1568,VALID,6,VALID,0,
2011-08-27, 03:50:04,VALID,1003.67,VALID,0,INVALID,163.823,VALID,0,VALID,23.1763,VALID,6,VALID,0,
2011-08-27, 03:51:04,VALID,1003.68,VALID,0,INVALID,163.815,VALID,0,VALID,23.1745,VALID,6,VALID,0,
2011-08-27, 03:52:04,VALID,1003.7,VALID,0,INVALID,163.792,VALID,0,VALID,23.2364,VALID,6,VALID,0,
2011-08-27, 03:53:04,VALID,1003.68,VALID,0,INVALID,163.784,VALID,0,VALID,23.2152,VALID,6,VALID,0,
2011-08-27, 03:54:04,VALID,1003.7,VALID,0,INVALID,163.815,VALID,0,VALID,23.2541,VALID,6,VALID,0,